カタログに戻る

STARLINK-5695

運用中通信VLEO
NORAD 55485·PAYLOAD·🇺🇸 United States

打ち上げ Feb 2, 2023 から Cape Canaveral Space Force Station

Loading…

次のパス (今後24時間)

TLE

最新Source: CelesTrak SupGP

元期: Sep 14, 2026, 21:41 UTC

1 55485C 23015AN  26257.90395833 -.00046210  00000+0 -16735-2 0  2575
2 55485  43.0046 351.3865 0002215 279.9529 323.6206 15.27605030    12

AllMySatでSTARLINK-5695をリアルタイム追跡

Download on the App Store